"Pseudo-MPEC" for P10O5BN

Created 2019 Jun 20 19:07:16 UT using Find_Orb

Click here for an explanation of pseudo-MPECs

 
 Astrometry: 
     P10O5BN  C2019 05 26I+ypLpS0'Astrometry%X8@*#H!7dredacted;`[+D[afjf#p?MvF51
     P10O5BN  C2019 05 265',p`b'I?click)hereJ0formdE0IDE00a(Texplanation'_$F3F51
     P10O5BN  C2019 05 27.26630 15 23 10.03 -24 49 11.7    ~5REq 19.5 GVNEOCPI52
     P10O5BN  C2019 05 27.26660 15 23 09.91 -24 49 17.8    ~5REq 19.9 GVNEOCPI52
     P10O5BN  C2019 05 27.26690 15 23 09.82 -24 49 24.1    ~5REq 19.8 GVNEOCPI52

Station data:
(F51) Pan-STARRS 1, Haleakala  (N20.707235 W156.255910)  US/Hawaii.
   Observers N. Primak, A. Schultz, S. Watters, J. Thiel, T. Goggia. Measurer
   PS1 Science Consortium. 1.8-m Ritchey-Chrétien + CCD.
(I52) Steward Observatory, Mt. Lemmon Station  (N32.442547 W110.788920)
   US/Arizona.  Observers T. A. Pruyne, B. M. Africano, E. J. Christensen, G.
   A. Farneth, D. C. Fuls, A. R. Gibbs, A. D. Grauer, H. Groeller, J. A.
   Johnson, R. A. Kowalski, S. M. Larson, G. J. Leonard, R. L. Seaman, F. C.
   Shelly. 1.0-m reflector + CCD.

Orbital elements:  P10O5BN
   Perihelion 2019 Jul 8.872184 +/- 1 TT = 20:55:56 (JD 2458673.372184)
Epoch 2019 May 27.0 TT = JDT 2458630.5   Earth MOID: 0.0361   AutoNEOCP
M 339.53672597 +/- 2.3              (J2000 ecliptic)
n   0.47730888 +/- 0.0437           Peri.  231.15697 +/- 0.9
a   1.62157250 +/- 0.0989           Node    63.87476 +/- 0.035
e   0.4146472 +/- 0.0378            Incl.   13.99699 +/- 0.9
P   2.06/754.21d           H 25.7   G  0.15   U 10.6  
q 0.94919200 +/- 0.00632    Q 2.29395300 +/- 0.195
From 5 observations 2019 May 26-27 (21.9 hr); mean residual 0".09
Residuals in arcseconds: 
190526 F51  .00   .01-    190527 I52  .07+  .19-    190527 I52  .06+  .13+    
190526 F51  .00   .01+    190527 I52  .14-  .07+    

Ephemerides (geocentric):
Date (UTC) HH   RA              Dec         delta   r     elong  mag " sig PA
---- -- -- --  -------------   -----------  ------ ------ -----  --- ---- ---
2019 06 20 19  04 08 52.563   -38 15 15.43  .13302 .97092  66.5 25.2 1970 170
2019 06 20 20  04 08 51.011   -38 13 08.07  .13327 .97082  66.5 25.2 1970 170
2019 06 20 21  04 08 49.470   -38 11 01.09  .13353 .97073  66.5 25.2 1969 170
2019 06 20 22  04 08 47.941   -38 08 54.50  .13378 .97063  66.5 25.2 1968 170
2019 06 20 23  04 08 46.424   -38 06 48.28  .13403 .97053  66.5 25.2 1968 170
2019 06 21 00  04 08 44.918   -38 04 42.45  .13429 .97043  66.5 25.2 1967 170
2019 06 21 01  04 08 43.423   -38 02 37.00  .13454 .97034  66.5 25.2 1966 170
2019 06 21 02  04 08 41.939   -38 00 31.92  .13479 .97024  66.4 25.2 1966 170
2019 06 21 03  04 08 40.467   -37 58 27.22  .13505 .97014  66.4 25.2 1965 170
2019 06 21 04  04 08 39.006   -37 56 22.88  .13530 .97004  66.4 25.2 1965 170
2019 06 21 05  04 08 37.556   -37 54 18.92  .13555 .96995  66.4 25.2 1964 170
2019 06 21 06  04 08 36.117   -37 52 15.32  .13580 .96985  66.4 25.2 1963 170
2019 06 21 07  04 08 34.689   -37 50 12.08  .13606 .96976  66.4 25.3 1963 170
2019 06 21 08  04 08 33.272   -37 48 09.21  .13631 .96966  66.4 25.3 1962 170
2019 06 21 09  04 08 31.866   -37 46 06.70  .13656 .96956  66.4 25.3 1961 170
2019 06 21 10  04 08 30.471   -37 44 04.55  .13682 .96947  66.3 25.3 1961 170
2019 06 21 11  04 08 29.087   -37 42 02.75  .13707 .96937  66.3 25.3 1960 170
2019 06 21 12  04 08 27.713   -37 40 01.31  .13732 .96928  66.3 25.3 1960 170
2019 06 21 13  04 08 26.350   -37 38 00.22  .13758 .96918  66.3 25.3 1959 170
2019 06 21 14  04 08 24.997   -37 35 59.48  .13783 .96909  66.3 25.3 1958 170
2019 06 21 15  04 08 23.655   -37 33 59.09  .13808 .96899  66.3 25.3 1958 170
2019 06 21 16  04 08 22.324   -37 31 59.04  .13833 .96890  66.3 25.3 1957 170
2019 06 21 17  04 08 21.003   -37 29 59.33  .13859 .96881  66.3 25.3 1957 170
2019 06 21 18  04 08 19.692   -37 27 59.97  .13884 .96871  66.3 25.3 1956 170
2019 06 21 19  04 08 18.391   -37 26 00.95  .13909 .96862  66.2 25.3 1955 170
2019 06 21 20  04 08 17.101   -37 24 02.27  .13935 .96852  66.2 25.3 1955 170
2019 06 21 21  04 08 15.821   -37 22 03.92  .13960 .96843  66.2 25.3 1954 170
2019 06 21 22  04 08 14.552   -37 20 05.90  .13985 .96834  66.2 25.3 1954 170
2019 06 21 23  04 08 13.292   -37 18 08.22  .14011 .96825  66.2 25.3 1953 170
2019 06 22 00  04 08 12.042   -37 16 10.87  .14036 .96815  66.2 25.3 1952 170
2019 06 22 01  04 08 10.803   -37 14 13.85  .14061 .96806  66.2 25.3 1952 170
2019 06 22 02  04 08 09.573   -37 12 17.15  .14087 .96797  66.2 25.3 1951 170
2019 06 22 03  04 08 08.353   -37 10 20.77  .14112 .96788  66.2 25.3 1951 170
2019 06 22 04  04 08 07.143   -37 08 24.72  .14137 .96778  66.1 25.3 1950 170
2019 06 22 05  04 08 05.943   -37 06 28.99  .14162 .96769  66.1 25.3 1950 170
2019 06 22 06  04 08 04.753   -37 04 33.58  .14188 .96760  66.1 25.3 1949 170
2019 06 22 07  04 08 03.572   -37 02 38.49  .14213 .96751  66.1 25.3 1949 170
2019 06 22 08  04 08 02.401   -37 00 43.71  .14238 .96742  66.1 25.3 1948 170
2019 06 22 09  04 08 01.240   -36 58 49.25  .14264 .96733  66.1 25.3 1947 170
2019 06 22 10  04 08 00.088   -36 56 55.09  .14289 .96724  66.1 25.3 1947 170
2019 06 22 11  04 07 58.945   -36 55 01.25  .14314 .96715  66.1 25.4 1946 170
2019 06 22 12  04 07 57.812   -36 53 07.71  .14339 .96706  66.1 25.4 1946 170
2019 06 22 13  04 07 56.689   -36 51 14.49  .14365 .96697  66.1 25.4 1945 170
2019 06 22 14  04 07 55.575   -36 49 21.56  .14390 .96688  66.1 25.4 1945 170
2019 06 22 15  04 07 54.470   -36 47 28.94  .14415 .96679  66.0 25.4 1944 170
2019 06 22 16  04 07 53.375   -36 45 36.62  .14441 .96670  66.0 25.4 1944 170
2019 06 22 17  04 07 52.288   -36 43 44.60  .14466 .96661  66.0 25.4 1943 170
2019 06 22 18  04 07 51.211   -36 41 52.88  .14491 .96652  66.0 25.4 1943 170